Regional Weather Roundup
Issued by NWS Boston, MA

Current Version | Previous Version | Text Only | Print | Product List | Glossary On
Versions: 1 2 3 4 5 6 7 8 9 10 11 12 13 14 15 16 17 18 19 20 21 22 23 24 25 26 27 28 29 30 31 32 33 34 35 36 37 38 39 40 41 42 43 44 45 46 47 48 49 50
000 ASUS41 KBOX 280610 RWRBOX REGIONAL WEATHER ROUNDUP NATIONAL WEATHER SERVICE TAUNTON MA 100 AM EST WED JAN 28 2015 NOTE: "FAIR" INDICATES FEW OR NO CLOUDS BELOW 12,000 FEET WITH NO SIGNIFICANT WEATHER AND/OR OBSTRUCTIONS TO VISIBILITY. THE FOLLOWING OBSERVATION LOCATIONS DO NOT REPORT PRESENT WEATHER...PROVINCETOWN... SMITHFIELD...BLOCK ISLAND...KEENE...AND OXFORD. MAZALL-280700- EASTERN MASSACHUSETTS CITY SKY/WX TMP DP RH WIND PRES REMARKS BOSTON LGT SNOW 14 8 77 NW14G23 29.68R WCI -1 6HR MIN TEMP: 14; 6HR MAX TEMP: 15; 6HR PCP: 0.03; BEVERLY LGT SNOW 13 7 77 NW14G23 29.65R WCI -2 LAWRENCE LGT SNOW 12 6 77 NW15G22 29.69R WCI -4 BEDFORD FLURRIES 13 5 70 NW15 29.68R WCI -3 BLUE HILL N/A 11 5 77 MISG 29.61R NORWOOD CLOUDY 14 5 67 NW10 29.68R WCI 1 MARSHFIELD LGT SNOW 18 12 79 NW9G23 29.66R WCI 6 PLYMOUTH CLOUDY 14 8 77 NW14G21 29.65R WCI -1 TAUNTON CLOUDY 15 7 70 NW10 29.67R WCI 2 NEW BEDFORD CLOUDY 15 8 73 NW9 29.66R WCI 3 $$ MAZALL-280700- CAPE COD AND THE ISLANDS CITY SKY/WX TMP DP RH WIND PRES REMARKS FALMOUTH FLURRIES 14 9 79 NW13G25 29.63R WCI 0 HYANNIS CLOUDY 18 52 100 NW16G30 29.58R FOG WCI 3 CHATHAM LGT SNOW 21 18 88 NW13G26 29.58R FOG WCI 9 PROVINCETOWN CLOUDY 21 19 93 N30G40 29.60R WCI 3 NANTUCKET LGT SNOW 20 13 74 NW21G30 29.62R WCI 4 MARTHAS VNYRD CLOUDY 16 9 74 MISG 29.65R HAZE $$ MAZALL-280700- CENTRAL AND WESTERN MASSACHUSETTS CITY SKY/WX TMP DP RH WIND PRES REMARKS WORCESTER MOCLDY 9 2 73 NW17G31 29.63R WCI -9 6HR MIN TEMP: 9; 6HR MAX TEMP: 11; 6HR PCP: 0.01; FITCHBURG CLOUDY 13 2 61 NW12 29.69S WCI -1 ORANGE CLOUDY 11 1 64 NW18G29 29.73S WCI -7 SPRINGFIELD CLOUDY 14 0 54 N14 29.75F WCI -1 WESTFIELD CLOUDY 13 1 59 NW15G22 29.77R WCI -3 NORTH ADAMS CLOUDY 10 1 67 NW9G23 29.80S WCI -3 PITTSFIELD LGT SNOW 9 1 70 NW15G23 29.73F WCI -8 $$ RIZALL-280700- RHODE ISLAND CITY SKY/WX TMP DP RH WIND PRES REMARKS PROVIDENCE CLOUDY 15 4 61 NW13 29.70R WCI 1 6HR MIN TEMP: 14; 6HR MAX TEMP: 17; 6HR PCP: 0.01; NEWPORT CLOUDY 14 7 73 NW17 29.68R WCI -3 BLOCK ISLAND CLOUDY 16 7 67 NW14G25 29.70R WCI 1 SMITHFIELD CLOUDY 12 0 57 NW8G17 29.65R WCI 1 WESTERLY CLOUDY 14 6 70 NW9 29.73R WCI 2 $$ CTZALL-280700- CONNECTICUT CITY SKY/WX TMP DP RH WIND PRES REMARKS BRADLEY INTL LGT SNOW 14 4 64 NW10 29.77S WCI 1 6HR MIN TEMP: 13; 6HR MAX TEMP: 17; 6HR PCP: TRACE; HARTFORD CLOUDY 13 5 70 NW10G21 29.80S HAZE WCI 0 BRIDGEPORT CLOUDY 15 7 70 NW16G24 29.81S WCI -1 DANBURY CLOUDY 13 2 61 NW13G18 29.81S WCI -2 GROTON CLOUDY 14 6 70 N18G26 29.73R WCI -3 NEW HAVEN FLURRIES 15 6 67 NW12 29.80R WCI 2 CHESTER LGT SNOW 14 9 79 N14G23 29.74R WCI -1 MERIDEN LGT SNOW 13 5 70 N12 29.79F WCI -1 WILLIMANTIC CLOUDY 13 4 67 NW12G17 29.74S WCI -1 OXFORD CLOUDY 12 0 57 N17G26 29.73F WCI -5 $$ MEZ002-015-021-024-NHZ003-005-008-011-012-014-VTZ005-008-280700- NORTHERN NEW ENGLAND CITY SKY/WX TMP DP RH WIND PRES REMARKS PORTLAND ME LGT SNOW 17 9 70 N22G36 29.62S VSB 1 WCI 0 6HR MIN TEMP: 15; 6HR MAX TEMP: 18; 6HR PCP: 0.02; BANGOR ME LGT SNOW 12 7 80 N26G33 29.62S BLWGSNOWWCI -8 CONCORD NH FLURRIES 12 4 70 NW12 29.70R WCI -2 MANCHESTER NH FLURRIES 12 4 70 NW14 29.68S WCI -3 NASHUA NH N/A 13 4 67 NW15G21 29.70S WCI -3 PORTSMOUTH NH SNOW 15 10 83 NW16 29.64S VSB 1/2 WCI -1 JAFFREY NH FLURRIES 9 1 70 VRB6 29.66R WCI -1 KEENE NH MOCLDY 12 1 62 N16G22 29.74S WCI -4 BURLINGTON VT MOCLDY 7 -3 64 N15 29.95S WCI -10 MT. WASHINGTON SNOW -2 -2 100 NE38 N/A VSB 1/16WCI -31 $$ NYZ052-076-280700- EASTERN NEW YORK CITY SKY/WX TMP DP RH WIND PRES REMARKS ALBANY CLOUDY 14 3 61 N6 29.88S WCI 5 6HR MIN TEMP: 12; 6HR MAX TEMP: 14; 6HR PCP: TRACE; NEW YORK CITY MOCLDY 18 9 68 N12 29.86R WCI 5 6HR MIN TEMP: 18; 6HR MAX TEMP: 26; $$ ANZALL-280700- MARINE OBSERVATIONS STATION/POSITION TIME TEMP WIND PRES VSBY WAVE AIR SEA DIR/SP/G HT/PER (UTC) (F) (DEG/KT/KT) (MB) (MI) (FT/S) BOSTON BUOY 0550 18 40 330/ 25/ 31 1003.3R 17/13 BUZZARDS BAY 0500 320/ 22/ 25 1004.9R NANTUCKET SOUND NOT AVBL MASS BAY-STELLWA 0504 21 41 320/ 27/ 35 N/A 1 7/8 ISLE OF SHOALS 0600 17 340/ 27/ 32 1002.7R S OF BLOCK IS 0508 43 N/A 7/ 6 $$ ......................KEY......................... SKY/WX - SKY CONDITION/PRESENT WEATHER TMP - TEMPERATURE IN FAHRENHEIT DWPT - DEWPOINT IN FAHRENHEIT RH - RELATIVE HUMIDITY IN PERCENT WIND - DIRECTION AND SPEED IN MPH PRES - MEAN SEA LEVEL PRESSURE IN INCHES OF HG WCI - WIND CHILL INDEX VSB - VISIBILITY IN MILES HX - HEAT INDEX TC - TEMPERATURE IN CELSIUS VRB - VARIABLE WIND DIRECTION N/A - NOT AVAILABLE

USA.gov is the U.S. government's official web portal to all federal, state and local government web resources and services.